Location: Étouvelles
(49.5207°N, 3.5808°E)
Time: 23:22:20
(UTC+00:00)

Cosmos 1825 - Pass Details

Date: 03 February 2023
Orbit: 480 x 487 km, 82.5° (Epoch: 01 April)

Event Time Altitude Azimuth Distance (km) Brightness Sun altitude
Rises 18:12:20 0° 184° (S) 2,570 5.9 -14.5°
Reaches altitude 10° 18:14:26 10° 183° (S) 1,694 4.9 -14.8°
Maximum altitude 18:18:08 75° 97° (E) 522 2.0 -15.4°
Drops below altitude 10° 18:21:53 10° 13° (NNE) 1,714 4.6 -16.0°
Enters shadow 18:23:48 - 12° (NNE) 2,518 5.5 -16.3°
